RH
101 101 100 100 100 101 101 100 100 99 97 94 91 89 88 90 95 99 101 100 100 100 100 100 100 100 100 100 100 101 100 100 100 100 100 101 101 101 101 100 97 93 92 95 98 97 95 91 87 82 78 74 70 67 63 57 54 50 46 44 46 48 48
101 100 100 100 100 100 100 100 100 100 100 100 100 98 94 91 90 93 97 100 101 101 100 100 100 100 100 100 100 101 101 100 100 101 101 101 100 99 99 97 94 91 88 87 88 86 84 81 79 77 76 74 73 73 72 69 67 65 61 58 56 56 57
101 100 100 100 101 100 100 100 100 100 100 100 100 101 101 100 97 95 96 99 101 102 102 102 101 102 102 102 102 102 102 102 101 101 102 102 101 100 99 98 96 92 88 85 84 83 82 80 78 78 80 82 81 82 83 82 81 81 79 77 73 69 67
101 101 101 100 100 100 100 100 100 100 100 100 100 100 100 101 101 100 99 100 101 102 102 102 102 101 101 102 102 102 103 103 103 103 102 101 101 101 100 100 100 97 94 91 90 91 92 90 87 85 86 88 87 86 86 85 84 83 82 83 83 80 77
92 94 95 97 98 99 100 100 101 101 101 101 101 100 101 100 100 100 100 100 100 100 100 101 101 101 100 101 101 101 100 101 102 102 101 100 100 100 100 100 100 100 99 98 97 98 100 101 99 95 94 92 91 89 86 84 81 79 79 80 82 83 83
60 63 67 70 73 77 80 83 86 89 92 94 96 97 99 100 101 101 101 101 101 101 101 100 100 100 100 100 100 100 100 100 101 101 100 101 101 101 102 101 101 100 100 100 100 100 102 104 105 104 102 99 96 93 88 84 81 79 80 82 84 87 89
38 39 41 43 45 48 50 52 55 58 61 65 68 72 75 79 84 87 90 93 95 98 99 101 101 101 101 101 101 101 101 100 100 100 100 101 102 103 104 103 103 101 100 99 97 97 98 100 101 101 100 99 98 95 90 87 84 82 81 83 85 87 89
40 39 39 39 39 40 41 42 43 43 44 45 46 48 50 52 54 56 60 64 68 73 77 81 85 88 92 94 96 98 99 100 101 101 101 102 103 104 104 103 103 101 100 97 94 91 89 88 90 92 93 94 94 91 88 85 82 78 76 77 78 80 83
39 38 38 37 36 37 37 37 38 39 40 41 42 44 45 46 47 47 47 48 49 51 53 55 58 61 65 68 71 74 77 80 84 86 88 91 94 96 97 98 98 98 98 97 94 91 88 85 83 84 87 90 90 88 85 81 76 71 69 71 72 72 74
39 38 37 36 36 35 34 34 34 34 34 35 36 38 40 42 44 45 48 50 52 53 52 52 53 53 54 54 54 55 55 56 59 61 63 65 68 71 74 78 81 84 86 88 90 91 92 91 89 87 87 88 89 88 85 81 77 72 69 70 70 70 71
46 45 44 44 44 43 42 40 39 38 37 36 35 35 35 36 36 37 40 43 48 52 54 55 55 56 57 58 57 56 55 54 54 54 53 54 54 54 55 57 59 62 65 68 71 74 78 82 85 87 89 90 92 93 90 86 82 78 75 75 73 72 76
54 53 53 53 52 52 51 50 48 47 46 44 43 41 40 38 37 36 36 37 40 43 46 50 53 55 56 57 58 58 58 58 59 59 59 58 57 56 54 52 52 52 52 53 53 54 57 60 63 68 73 78 83 89 91 92 90 87 85 84 80 78 82
59 58 58 57 57 56 56 55 54 54 52 51 50 49 47 45 43 42 40 40 39 40 41 45 47 50 51 52 53 54 55 56 57 59 61 62 61 61 61 59 56 54 53 52 50 48 47 47 48 48 51 54 58 64 72 79 83 87 89 90 89 87 87
66 66 65 64 63 62 61 59 58 57 56 56 54 53 51 49 48 47 45 44 44 44 44 44 45 47 49 50 51 51 53 54 55 57 58 59 60 61 61 62 62 61 59 57 54 52 49 48 47 44 43 44 44 45 48 52 58 64 70 75 81 85 88
75 74 72 71 69 67 66 65 64 63 61 60 59 58 56 54 53 52 50 50 50 50 50 50 50 51 52 54 56 56 56 56 57 57 57 57 58 59 59 59 60 61 62 61 60 58 56 55 54 51 49 46 44 42 40 39 41 44 48 53 57 63 71
83 81 79 78 75 74 73 73 73 73 72 71 70 67 65 63 62 60 58 58 60 61 62 61 62 63 63 64 65 64 63 61 60 59 58 57 57 57 59 59 58 58 58 58 58 58 58 59 60 60 58 55 51 48 44 42 42 42 44 44 43 44 47
92 90 88 87 84 82 80 80 80 80 80 80 79 77 75 74 73 72 70 69 70 71 72 71 70 70 69 68 68 67 67 65 64 62 60 59 58 58 58 59 58 58 56 54 54 53 54 56 58 60 60 59 57 55 52 50 48 46 45 43 40 39 40
99 98 95 93 91 88 86 85 84 83 82 82 81 80 78 77 76 75 74 73 72 72 72 71 70 67 65 64 63 63 64 64 63 62 60 60 59 59 58 57 56 57 57 57 57 55 52 51 52 55 58 59 59 60 58 58 56 54 53 50 45 42 40
95 95 93 90 88 86 85 84 82 80 78 77 76 74 71 69 67 65 63 62 60 58 57 56 55 54 53 53 53 54 56 57 57 57 57 56 56 56 56 56 55 55 56 58 59 58 57 57 57 58 58 58 59 61 62 61 59 58 57 54 51 48 44
84 82 80 78 76 74 72 70 68 67 65 63 61 59 57 55 53 51 49 47 45 44 42 41 40 40 40 41 41 41 43 45 46 47 47 46 46 47 48 49 50 51 52 54 58 63 68 71 71 68 63 59 57 57 60 63 62 60 59 56 54 52 49
66 65 62 60 59 57 55 54 52 51 50 49 47 46 45 43 42 41 40 39 38 37 36 35 34 34 33 33 33 33 33 34 35 35 35 35 36 38 41 44 46 48 51 56 64 72 77 78 75 72 68 64 61 59 59 61 64 65 64 61 58 56 53
52 51 49 47 46 45 44 44 43 42 41 40 39 39 38 37 36 36 35 34 34 33 32 32 31 31 31 30 30 30 29 29 29 29 29 29 31 33 35 37 39 41 44 49 55 60 63 63 63 65 68 70 70 68 66 65 65 66 67 66 62 60 57
45 44 43 43 42 41 41 40 40 39 39 39 39 38 38 37 36 36 34 33 33 32 31 31 31 30 30 29 29 28 28 27 26 26 26 26 26 27 28 28 29 30 32 34 38 41 44 47 50 56 63 69 74 75 74 72 70 67 67 67 66 65 63
46 45 45 44 43 43 43 42 41 40 40 40 40 39 39 39 39 38 37 37 36 36 36 36 36 36 37 37 37 37 36 35 35 34 33 32 30 28 27 25 25 25 25 26 27 29 32 35 39 43 49 55 60 64 66 67 67 67 65 64 63 63 63
40 38 37 36 35 34 32 31 30 29 29 28 28 27 27 27 27 27 27 27 28 28 29 30 31 32 34 36 37 39 41 42 44 45 46 45 44 43 40 38 35 33 32 30 29 29 29 30 32 34 36 39 42 45 49 52 55 57 58 58 57 56 55
25 24 23 22 21 20 20 19 19 19 18 18 17 17 17 17 17 17 17 17 17 17 17 17 18 19 20 21 22 24 25 27 29 32 35 37 39 41 43 44 45 45 44 44 43 42 42 42 42 42 42 42 43 43 44 46 47 48 49 50 51 50 49
19 18 18 17 17 17 16 17 17 16 16 16 16 16 15 15 15 15 15 15 15 14 14 14 14 14 14 15 15 16 16 16 17 18 19 20 22 23 25 28 31 33 36 39 41 44 46 48 51 52 52 54 55 55 55 55 55 54 54 54 53 51 49
18 18 17 16 16 16 16 16 16 16 16 16 16 16 15 15 15 15 15 15 14 14 14 14 14 14 14 14 14 14 14 15 15 16 17 17 18 18 18 18 19 19 21 22 24 27 30 33 36 39 42 46 49 51 53 55 57 58 59 61 61 59 57
18 17 17 17 16 16 16 16 16 17 16 16 16 16 15 15 16 15 15 15 15 14 15 15 15 15 15 14 14 14 14 14 14 14 15 15 16 17 18 19 19 19 19 19 19 20 20 20 21 22 24 27 30 32 35 37 41 44 46 49 52 54 56
17 16 16 15 16 16 15 16 16 17 18 17 17 17 17 16 16 16 15 15 15 15 15 15 15 15 15 15 14 14 14 14 13 13 13 14 14 15 15 16 17 18 19 20 22 23 24 24 23 21 20 19 19 20 21 22 25 27 29 31 34 36 38
17 17 16 16 17 18 18 18 18 19 20 21 21 21 20 19 18 18 17 17 17 17 16 16 16 16 16 15 15 14 14 14 14 14 14 14 14 14 14 14 15 15 16 18 21 24 26 28 29 28 27 25 22 20 19 18 18 19 20 22 23 24 25
19 18 18 17 18 18 19 21 21 21 22 23 24 24 24 23 22 21 21 20 19 19 18 17 17 17 16 16 15 15 14 14 14 14 14 14 15 15 15 15 15 15 16 18 20 23 25 28 31 33 33 33 31 28 24 21 19 18 18 18 19 19 21
20 20 20 20 20 19 20 21 23 25 25 25 25 26 25 25 24 24 23 22 22 20 19 19 18 17 17 16 16 15 15 15 15 15 15 15 15 16 16 16 17 18 19 21 23 25 28 31 34 37 39 39 38 35 32 28 25 21 19 18 18 17 18
21 20 21 22 22 22 22 23 24 25 26 27 27 26 26 26 26 25 25 24 23 21 20 19 18 17 17 16 16 15 15 15 15 16 16 16 16 17 18 19 20 22 24 26 29 32 35 38 41 44 46 45 44 41 39 35 32 29 26 23 21 19 18
26 23 22 23 23 23 24 25 26 27 27 28 28 27 27 28 27 27 26 25 23 22 20 19 19 18 17 17 16 16 16 16 16 16 17 18 18 19 21 23 25 27 29 32 37 41 45 48 51 54 55 53 50 47 44 41 38 37 34 31 29 26 24
32 29 26 25 25 26 27 27 27 29 30 30 29 29 30 29 29 28 27 26 24 23 21 20 19 18 18 17 17 16 16 16 16 17 17 18 19 21 24 27 30 33 36 40 45 51 55 57 60 64 64 62 58 54 51 48 46 44 42 40 38 34 32
Wind_Speed
55 55 55 56 57 57 58 60 61 63 64 67 70 73 76 78 78 78 78 78 78 78 78 77 75 73 70 68 69 70 70 69 69 69 69 70 71 73 74 75 75 74 73 74 74 75 75 76 76 76 76 76 75 75 75 75 74 74 74 74 73 72 72
56 56 56 57 57 58 59 60 61 63 64 65 67 68 71 74 77 79 80 80 80 80 80 79 78 77 76 74 74 74 75 74 74 74 75 76 76 77 78 78 77 76 75 75 76 76 77 77 76 76 75 75 74 73 73 72 72 72 73 73 73 72 71
56 56 57 57 57 58 59 60 61 62 63 65 66 67 69 70 73 75 77 79 79 79 80 80 80 80 79 79 78 78 78 78 78 78 78 77 77 77 76 76 76 76 75 74 74 75 75 76 75 75 74 74 73 73 72 72 71 72 72 73 73 73 73
56 57 58 58 59 59 59 60 61 62 62 63 64 65 67 68 69 71 73 75 77 77 77 77 78 78 78 77 77 77 77 77 77 76 76 75 74 73 73 73 74 73 73 73 72 72 73 74 75 75 74 75 75 74 74 73 73 73 74 74 74 74 74
54 56 57 58 59 60 61 61 62 63 63 64 64 65 65 66 67 68 69 70 72 73 74 74 74 74 74 74 74 74 74 74 74 74 73 72 72 72 72 72 72 72 72 72 71 71 72 73 74 75 75 76 76 76 76 75 75 76 76 75 75 75 75
53 54 55 56 57 58 59 60 61 62 63 64 65 65 66 67 67 68 68 69 70 71 72 73 73 74 74 73 73 73 73 73 73 73 73 73 73 73 73 73 73 73 73 73 72 72 72 73 74 75 75 76 76 76 76 75 75 76 76 76 75 75 75
54 55 55 55 56 57 58 58 59 60 61 62 63 64 65 66 67 67 68 69 70 70 71 72 73 73 74 74 74 75 74 74 74 74 74 75 75 75 75 74 75 75 75 75 74 74 74 74 75 75 75 75 76 75 74 74 74 74 75 75 75 75 75
57 57 58 58 59 59 59 60 60 61 61 62 63 63 64 65 65 66 67 68 68 69 70 71 72 72 73 74 74 74 75 75 76 76 76 76 76 76 76 76 76 76 76 76 76 76 76 76 76 75 75 75 76 75 74 75 75 75 75 76 76 75 75
60 60 61 61 62 62 62 63 63 64 64 65 65 66 66 67 67 67 68 68 69 70 70 70 71 71 72 72 73 73 74 74 75 75 76 77 77 77 78 78 78 78 78 77 77 77 77 77 76 76 76 76 76 77 77 77 77 76 75 76 76 75 75
63 63 64 64 64 65 65 66 66 67 67 68 68 69 69 70 70 71 71 72 72 73 73 73 73 73 73 73 73 73 73 73 73 74 74 75 76 76 77 77 77 78 78 79 78 78 78 78 78 78 78 79 79 79 80 79 79 78 77 78 77 76 77
67 67 67 67 68 69 69 69 70 70 71 71 72 72 72 73 73 73 74 75 76 77 77 77 77 77 77 76 76 76 75 75 75 75 75 75 75 76 76 76 76 76 77 77 77 77 78 78 78 79 80 80 81 82 83 82 82 82 81 81 80 79 79
70 70 71 71 71 72 73 73 74 74 75 75 76 76 76 76 76 76 77 78 79 80 80 80 81 81 80 80 80 80 79 79 79 78 78 78 78 78 77 77 76 76 76 76 76 76 77 77 78 78 79 80 81 83 83 84 84 84 84 83 83 82 81
73 73 74 74 75 75 76 77 77 78 79 79 80 80 80 80 79 80 80 81 82 82 83 83 83 83 84 84 84 84 83 83 83 82 82 82 82 82 81 81 80 79 78 78 77 77 77 77 78 78 78 79 80 81 81 82 83 84 85 85 84 84 84
76 76 76 77 77 78 79 79 80 81 82 82 83 83 84 83 83 83 84 84 84 85 86 86 86 86 86 87 87 87 87 87 87 86 86 86 86 86 85 85 84 84 83 82 81 80 79 79 79 79 79 80 80 80 80 81 82 83 84 84 85 85 84
79 79 80 80 80 81 81 82 83 83 84 85 86 86 86 86 86 86 86 86 87 87 88 88 89 89 89 89 90 90 91 91 90 90 90 89 89 89 89 89 88 88 87 86 86 85 84 83 83 82 81 82 82 82 81 81 81 82 82 83 83 83 83
82 83 83 84 84 84 85 85 86 86 86 87 88 89 89 89 89 89 89 89 89 90 91 91 91 91 92 92 92 93 93 93 93 93 93 93 92 92 92 92 91 91 91 90 90 89 88 87 87 86 86 85 85 84 83 83 83 83 84 84 84 82 82
84 85 86 86 87 88 88 89 89 89 90 91 91 92 92 92 92 92 92 92 92 93 94 94 94 94 94 94 94 95 95 96 96 96 96 96 95 95 95 95 95 94 94 94 94 93 92 92 91 91 90 90 89 88 87 87 86 86 87 87 85 84 83
85 86 87 88 89 89 90 91 92 92 93 94 95 96 96 96 96 95 95 95 96 96 97 97 98 98 98 98 98 98 98 99 99 99 99 99 99 99 99 98 98 98 97 97 97 97 97 96 95 95 94 93 93 92 91 91 90 90 90 90 88 87 85
87 88 89 90 91 91 92 93 94 95 95 96 98 99 100 100 99 99 99 100 100 100 101 101 101 101 101 102 102 102 102 103 103 103 103 103 103 102 102 102 102 101 101 100 100 100 99 99 99 99 98 97 97 96 95 95 94 94 94 94 92 91 90
91 92 93 94 94 95 96 97 97 98 98 99 100 102 103 103 102 102 103 103 104 104 104 104 104 105 105 105 106 106 106 106 106 107 107 107 106 106 106 106 106 105 104 104 103 102 102 101 101 102 102 101 101 100 99 99 98 98 98 97 96 95 95
95 95 96 97 97 98 98 99 99 100 100 101 102 103 104 104 104 104 105 105 105 106 106 106 107 108 108 109 109 109 109 110 110 110 110 110 109 109 109 109 109 108 107 106 105 105 105 105 104 104 105 105 105 104 104 103 102 102 102 101 100 99 99
97 97 98 98 99 99 100 100 100 101 101 102 102 103 104 105 105 106 106 106 106 107 107 107 108 108 109 110 110 111 112 112 112 112 112 111 111 111 111 111 110 110 109 109 108 109 109 109 108 108 107 107 107 107 107 107 106 106 105 105 104 103 102
97 97 97 97 98 98 99 99 100 100 100 101 101 102 103 103 104 105 106 106 106 106 106 107 107 107 108 108 109 110 110 111 111 111 111 112 112 112 112 112 112 111 111 110 110 110 110 110 109 109 109 108 108 108 108 108 108 108 108 108 107 106 105
95 95 95 95 96 96 97 98 98 99 99 100 100 101 101 102 103 103 104 104 105 105 106 106 106 106 106 107 107 107 107 108 108 108 109 109 110 110 110 110 110 110 110 110 109 109 108 108 107 108 108 108 108 108 108 108 109 109 109 109 109 108 107
92 92 92 93 93 93 94 95 95 96 96 97 98 98 99 99 100 100 101 101 102 103 103 104 105 105 105 106 106 106 106 106 107 107 108 108 108 109 109 108 108 108 108 108 107 107 106 105 105 105 105 105 106 106 106 106 106 106 107 107 107 107 107
88 88 88 88 89 89 89 90 90 91 92 93 93 94 94 95 95 96 96 97 97 98 98 99 100 100 101 102 103 103 104 104 105 106 107 107 108 109 109 108 108 108 107 107 106 105 104 103 103 102 102 102 102 101 101 101 102 102 102 103 103 103 103
85 85 85 85 85 85 86 86 87 87 88 89 89 90 90 91 91 92 92 92 93 93 94 95 95 96 96 97 98 99 100 100 101 102 103 104 105 106 106 107 107 107 107 107 106 106 105 104 103 103 102 101 101 100 99 99 99 99 98 99 99 99 98
81 82 82 81 81 81 81 81 82 83 83 84 84 85 86 86 86 87 87 88 88 89 89 90 90 91 92 93 95 95 96 97 98 99 100 100 101 102 102 103 103 103 103 103 104 104 104 104 103 103 103 103 102 102 101 100 100 99 98 98 98 97 96
78 78 78 78 77 78 77 77 78 79 80 80 80 81 81 82 82 83 83 84 84 85 85 85 86 87 88 90 90 91 91 92 94 95 96 97 98 98 99 100 100 100 100 100 100 99 99 99 99 99 100 101 101 101 101 101 101 101 100 100 100 98 97
75 75 74 74 73 74 73 73 73 74 75 75 76 76 77 77 78 78 79 79 80 80 81 82 83 84 85 86 87 87 87 88 89 90 91 92 93 94 94 95 96 96 97 97 97 96 96 95 95 95 95 96 96 97 97 98 99 99 99 100 99 99 98
72 71 71 70 69 69 69 69 69 70 70 70 71 71 72 72 73 74 74 75 75 76 77 78 79 80 81 82 83 83 84 84 85 86 87 88 88 89 89 90 91 91 92 92 93 93 93 93 92 92 91 91 91 92 92 93 94 95 96 96 96 96 96
69 68 68 67 67 66 66 66 66 66 66 66 67 67 68 68 69 69 70 71 72 72 73 74 75 76 77 78 79 79 80 81 81 82 83 84 84 84 85 85 85 86 86 86 87 88 89 89 89 88 88 88 88 87 87 88 89 90 91 91 92 93 93
66 66 65 65 65 64 64 64 63 64 64 64 64 64 64 65 65 66 66 68 68 69 70 71 72 73 73 74 75 75 76 77 78 79 80 80 81 81 81 81 81 81 81 81 82 82 83 84 84 84 83 83 83 83 83 83 83 84 85 86 87 88 88
64 64 63 62 62 62 61 61 61 61 61 61 61 61 61 61 61 62 62 63 64 65 66 67 68 69 70 71 72 72 73 74 75 76 77 78 78 78 78 78 77 77 76 76 77 77 77 78 78 78 78 78 79 79 79 79 79 80 80 81 81 82 83
62 61 60 59 59 58 58 58 58 58 58 58 58 57 57 57 57 58 59 60 61 61 62 63 64 65 66 67 68 69 70 71 72 73 74 75 75 76 75 75 74 73 73 72 72 72 73 73 73 73 73 74 74 74 74 75 75 76 76 76 77 77 77
58 58 58 57 56 56 56 56 55 55 55 55 54 54 53 53 53 54 54 55 56 57 57 58 59 60 61 63 64 65 67 68 69 70 71 72 72 72 72 72 71 70 70 69 69 69 69 69 69 69 69 70 70 70 70 71 71 72 72 72 72 73 73
Wind_Direction
252 253 253 253 253 254 254 253 253 252 251 250 249 248 249 249 250 250 249 250 251 251 252 253 254 254 255 255 255 254 252 251 250 250 250 251 253 255 257 257 257 256 256 256 257 258 259 260 260 261 262 263 263 264 265 266 266 267 266 266 265 264 263
254 253 253 252 252 252 252 252 252 252 252 252 251 251 250 250 251 252 253 253 253 254 254 255 255 256 256 256 256 257 256 254 253 253 253 254 256 258 259 260 260 260 259 259 259 260 261 261 261 261 262 261 261 262 262 263 264 264 265 265 264 264 264
255 255 254 253 253 252 252 251 251 252 252 252 252 252 252 252 251 252 253 255 256 256 257 257 258 258 259 259 259 259 260 260 260 260 260 260 260 261 261 262 262 262 262 261 261 260 261 261 261 261 260 260 260 260 260 261 261 262 263 263 264 264 264
256 255 255 255 255 254 254 253 253 253 253 253 253 253 253 253 253 253 253 254 255 257 258 258 259 259 260 260 260 260 261 261 261 262 261 261 261 260 260 260 261 261 261 261 261 260 260 260 260 260 260 260 260 260 260 260 260 261 261 262 262 262 263
257 256 256 256 256 256 256 255 255 255 255 255 255 255 255 255 255 255 255 255 255 256 257 258 259 260 260 260 261 261 261 261 261 261 261 261 260 260 259 258 258 258 258 258 258 258 258 258 259 260 260 260 260 260 260 260 260 261 261 261 261 261 261
258 258 258 258 258 258 258 258 257 257 257 257 257 257 257 257 257 257 258 258 258 258 258 258 259 260 260 261 261 261 261 261 261 261 261 261 262 261 261 260 260 259 258 257 256 256 256 257 258 259 259 259 259 259 260 260 261 261 261 261 261 260 260
259 260 260 260 260 260 260 260 260 260 260 260 260 260 260 260 260 260 260 260 260 260 260 260 261 261 261 261 261 262 262 262 262 262 262 262 262 262 262 262 262 261 261 260 258 257 256 256 257 258 258 259 259 259 260 260 260 260 260 260 260 259 259
260 261 261 261 261 262 262 262 262 262 262 262 262 262 262 262 262 262 262 262 262 262 262 262 262 262 262 262 262 262 262 262 262 262 262 262 262 262 262 262 262 262 262 262 261 260 259 258 258 258 258 259 259 259 259 259 259 259 259 259 259 259 259
261 261 262 262 262 262 263 263 263 263 264 264 264 264 264 264 264 264 264 264 264 264 264 264 264 264 264 263 263 263 263 263 263 263 263 263 263 262 262 262 262 262 262 262 262 261 261 260 259 259 259 259 259 260 259 259 259 259 259 259 258 258 258
262 263 263 263 263 263 263 264 264 264 264 264 265 265 265 265 265 265 265 266 266 266 265 265 265 265 265 265 265 265 264 264 264 264 264 264 264 264 263 263 263 262 262 262 261 261 261 260 260 260 259 259 260 260 260 260 260 260 259 259 258 258 258
263 264 264 264 265 265 265 264 264 265 265 265 265 265 265 265 265 266 266 266 266 266 266 266 265 265 265 265 266 266 266 266 266 265 265 265 265 265 264 264 264 263 263 262 262 261 261 260 260 259 259 259 259 260 260 260 260 260 259 259 259 259 259
264 265 265 265 266 266 266 266 265 265 265 265 265 265 265 265 265 266 266 266 266 266 266 266 266 266 265 265 266 266 266 266 266 266 266 265 265 265 265 264 264 264 263 263 263 262 262 261 260 259 259 259 258 259 259 259 259 259 259 259 258 258 258
265 265 265 266 266 266 267 267 267 266 266 266 266 265 265 265 265 265 265 265 265 266 265 265 265 266 266 266 266 266 266 266 266 266 266 266 265 265 265 264 264 264 263 263 263 262 262 262 261 260 260 259 259 258 258 258 258 258 258 258 258 257 257
266 266 266 266 266 266 267 267 267 267 267 267 267 266 266 266 265 265 265 265 265 265 265 265 265 265 266 266 266 266 266 266 266 266 266 266 266 265 265 265 264 264 263 263 263 262 262 262 262 261 261 261 260 259 259 258 258 258 258 258 257 257 256
268 268 268 267 267 267 267 267 267 267 267 267 267 267 267 266 266 265 265 265 265 265 265 265 265 265 265 266 266 266 266 266 266 266 266 266 266 266 266 265 265 264 264 263 263 263 262 262 262 262 261 261 261 261 260 260 260 260 259 259 258 257 256
268 268 268 268 268 268 268 268 268 268 267 267 267 267 267 267 266 266 266 265 265 265 265 265 265 265 265 265 266 266 266 266 266 266 266 266 266 266 266 266 266 265 265 264 264 263 263 263 262 262 262 261 261 261 261 261 260 260 260 259 258 258 257
268 268 268 267 267 267 267 267 268 268 268 268 268 267 267 267 267 266 266 266 266 266 266 266 266 265 265 265 266 266 266 266 266 266 266 266 265 265 265 265 265 265 265 265 265 264 264 263 263 263 262 262 262 262 261 261 260 260 260 259 259 259 258
268 268 268 268 268 267 267 267 267 267 268 268 268 268 268 267 267 267 267 267 267 266 266 267 266 266 266 266 266 266 266 265 265 265 265 265 265 265 265 265 265 265 265 265 265 265 265 264 264 263 263 263 263 262 262 261 261 260 260 260 260 259 259
269 269 269 269 269 269 269 268 268 268 268 268 269 269 268 268 268 268 268 267 267 267 267 267 267 267 267 267 266 266 265 265 265 265 265 264 264 264 264 264 264 264 264 264 264 264 265 264 264 264 263 263 262 262 262 262 261 261 260 260 260 260 259
271 271 271 271 270 270 270 270 270 269 269 269 269 269 269 269 269 268 268 268 268 268 268 268 268 267 267 267 266 266 265 265 265 265 264 264 264 264 264 264 264 263 264 264 264 264 263 263 263 263 263 263 262 262 262 262 262 261 261 261 261 260 260
271 271 271 271 271 271 270 270 270 270 269 269 269 269 269 269 269 268 268 268 268 268 268 268 268 268 267 267 267 266 266 266 265 265 265 265 265 265 264 263 263 263 263 262 262 262 261 261 262 262 262 262 262 262 262 262 261 261 261 261 261 261 260
272 271 271 271 271 270 270 270 270 269 269 269 269 269 269 268 268 268 267 267 267 267 267 267 267 267 267 267 267 266 266 266 266 266 266 265 265 264 263 263 263 262 262 261 261 261 261 261 261 261 262 262 262 262 261 261 261 261 261 261 261 261 261
272 272 272 271 271 271 271 270 270 270 270 269 269 269 269 268 268 268 268 267 267 266 266 266 266 265 265 265 265 265 265 266 266 265 265 265 264 264 263 263 263 262 262 261 261 261 261 261 261 261 261 261 261 261 261 261 261 261 261 261 261 261 261
273 272 272 272 272 272 271 271 271 271 270 270 269 269 269 269 269 268 268 267 267 267 266 266 265 265 265 265 265 265 265 265 265 265 265 264 264 264 264 264 263 263 262 262 261 261 261 261 260 260 260 260 260 260 260 260 261 261 261 261 261 261 261
273 273 273 272 272 272 272 272 272 271 271 270 270 270 269 269 269 269 268 268 267 267 266 266 266 265 265 265 264 264 264 264 264 264 264 264 264 264 264 264 263 263 263 262 262 262 261 261 261 260 260 259 259 259 259 259 260 260 260 260 260 260 261
274 274 273 273 273 273 273 273 272 272 272 271 271 271 270 270 270 269 269 269 268 267 267 266 266 265 265 265 264 264 264 263 263 263 263 263 263 263 263 263 263 263 262 262 262 262 262 261 261 261 261 260 260 259 259 259 259 259 259 259 259 259 259
275 275 275 274 274 274 274 273 273 273 273 272 272 272 271 271 270 270 270 269 269 268 268 267 267 266 266 265 264 264 264 263 263 263 263 263 263 263 263 262 262 262 262 262 262 261 261 261 261 261 260 260 260 260 259 259 259 258 258 258 258 258 258
276 276 275 275 275 274 274 274 274 273 273 273 272 272 272 271 271 270 270 270 269 269 268 268 267 267 266 265 264 264 264 263 263 263 262 262 262 263 262 262 262 262 262 261 261 261 261 260 260 260 260 259 259 259 259 259 259 258 258 258 258 257 257
277 277 276 276 276 275 275 275 274 274 274 273 273 272 272 272 271 271 271 270 270 269 269 268 268 267 266 266 265 265 264 264 263 263 262 262 262 262 262 262 262 262 261 261 261 260 260 260 259 259 259 259 258 258 258 258 258 258 258 258 257 257 257
278 277 277 277 277 276 276 275 275 275 275 274 274 274 273 273 272 272 272 271 271 270 269 269 268 267 267 266 266 265 264 264 263 263 263 262 262 262 261 261 261 261 261 261 260 260 260 259 259 259 258 258 258 258 257 257 257 257 257 257 257 257 257
279 278 278 278 277 277 277 276 276 275 275 275 275 275 275 274 274 273 273 272 272 271 270 270 269 269 268 267 267 266 265 265 264 263 263 262 262 261 261 261 261 261 260 260 260 259 259 259 258 258 258 258 258 257 257 257 257 257 257 257 257 257 256
279 279 279 278 278 277 277 277 276 276 276 275 275 275 275 275 275 275 275 274 274 273 272 271 271 270 269 268 268 267 266 265 265 264 263 262 262 261 261 261 260 260 260 260 259 259 259 258 258 258 257 257 257 257 257 257 257 257 256 256 256 256 256
279 279 279 279 278 278 277 277 277 277 276 276 276 276 276 276 276 276 275 275 275 274 274 273 272 271 270 269 269 268 267 266 265 264 263 263 262 261 261 260 260 260 259 259 259 259 258 258 258 258 257 257 257 257 256 256 256 256 256 256 256 255 255
280 279 279 279 278 278 278 277 277 277 277 277 277 277 277 277 277 277 277 276 276 275 274 274 273 272 272 271 270 269 267 266 265 264 263 263 262 261 261 260 260 259 259 259 259 258 258 258 258 257 257 256 256 256 256 255 255 255 256 256 255 255 255
281 280 279 279 279 278 278 278 278 278 278 278 278 278 278 279 279 279 278 278 277 276 276 275 274 274 273 271 270 269 268 266 265 264 263 262 262 261 260 260 259 259 258 258 258 258 258 257 257 257 256 256 256 255 255 255 255 255 255 255 255 255 255
281 281 280 280 280 280 279 279 279 278 279 279 279 280 280 280 280 280 280 280 279 279 278 277 276 275 274 272 271 269 268 267 265 264 263 262 261 260 259 259 258 258 257 257 257 257 257 257 256 256 256 256 255 255 255 254 254 254 254 254 254 254 254